| time (UTC) | temp C | wind direction | speed KPH | gust KPH | rain 1hr cm | rain 24hr cm | rain mn cm | humidity % | barometer mb |
| 20260831231011 | 18 | 37 | 19.3 | 24.1 | 0.00 | 0.00 | 0.00 | 86 | 1012.5 |
| 20260831230007 | 18 | 35 | 16.1 | 22.5 | 0.00 | 0.00 | 0.00 | 86 | 1012.4 |
| 20260831225006 | 18 | 36 | 16.1 | 22.5 | 0.00 | 0.00 | 0.00 | 85 | 1012.6 |
| 20260831224005 | 18 | 22 | 19.3 | 27.4 | 0.00 | 0.00 | 0.00 | 84 | 1012.6 |
| 20260831223006 | 18 | 34 | 19.3 | 25.7 | 0.00 | 0.00 | 0.00 | 84 | 1013.0 |
| 20260831222005 | 18 | 8 | 20.9 | 27.4 | 0.00 | 0.00 | 0.00 | 84 | 1013.0 |
| 20260831221005 | 18 | 22 | 19.3 | 29.0 | 0.00 | 0.00 | 0.00 | 84 | 1013.0 |
| 20260831220005 | 18 | 22 | 24.1 | 25.7 | 0.00 | 0.00 | 0.00 | 84 | 1013.0 |
| 20260831215009 | 19 | 32 | 19.3 | 25.7 | 0.00 | 0.00 | 0.00 | 83 | 1013.1 |
| 20260831214006 | 19 | 347 | 14.5 | 29.0 | 0.00 | 0.00 | 0.00 | 82 | 1013.1 |
| 20260831213005 | 19 | 12 | 16.1 | 25.7 | 0.00 | 0.00 | 0.00 | 81 | 1012.9 |
| 20260831212005 | 19 | 39 | 17.7 | 27.4 | 0.00 | 0.00 | 0.00 | 80 | 1013.0 |
| 20260831211005 | 19 | 354 | 20.9 | 32.2 | 0.00 | 0.00 | 0.00 | 78 | 1013.0 |
| 20260831210005 | 20 | 22 | 24.1 | 27.4 | 0.00 | 0.00 | 0.00 | 75 | 1012.8 |
| 20260831205005 | 20 | 22 | 12.9 | 25.7 | 0.00 | 0.00 | 0.00 | 75 | 1012.6 |
| 20260831204005 | 20 | 18 | 17.7 | 24.1 | 0.00 | 0.00 | 0.00 | 75 | 1012.6 |
| 20260831203006 | 20 | 35 | 9.7 | 14.5 | 0.00 | 0.00 | 0.00 | 74 | 1012.7 |
| 20260831202007 | 20 | 22 | 9.7 | 12.9 | 0.00 | 0.00 | 0.00 | 73 | 1012.5 |
| 20260831201005 | 20 | 34 | 0.0 | 0.0 | 0.00 | 0.00 | 0.00 | 73 | 1012.3 |
| 20260831200005 | 20 | 22 | 0.0 | 0.0 | 0.00 | 0.00 | 0.00 | 73 | 1012.2 |
| 20260831194005 | 20 | 22 | 1.6 | 12.9 | 0.00 | 0.00 | 0.00 | 70 | 1012.0 |
| 20260831193005 | 21 | 30 | 1.6 | 16.1 | 0.00 | 0.00 | 0.00 | 69 | 1011.8 |
| 20260831191005 | 22 | 22 | 8.0 | 19.3 | 0.00 | 0.00 | 0.00 | 65 | 1011.7 |
| 20260831190006 | 22 | 57 | 4.8 | 16.1 | 0.00 | 0.00 | 0.00 | 62 | 1011.5 |
| 20260831185005 | 23 | 25 | 9.7 | 16.1 | 0.00 | 0.00 | 0.00 | 59 | 1011.5 |
| 20260831184005 | 23 | 30 | 6.4 | 20.9 | 0.00 | 0.00 | 0.00 | 56 | 1011.5 |
| 20260831183005 | 24 | 37 | 12.9 | 16.1 | 0.00 | 0.00 | 0.00 | 53 | 1011.4 |
| 20260831181005 | 25 | 14 | 11.3 | 16.1 | 0.00 | 0.00 | 0.00 | 49 | 1011.3 |
| 20260831180005 | 25 | 3 | 14.5 | 20.9 | 0.00 | 0.00 | 0.00 | 49 | 1011.2 |
| 20260831175005 | 25 | 10 | 14.5 | 24.1 | 0.00 | 0.00 | 0.00 | 49 | 1011.2 |
| 20260831174005 | 26 | 339 | 14.5 | 22.5 | 0.00 | 0.00 | 0.00 | 50 | 1011.2 |
| 20260831173005 | 26 | 359 | 14.5 | 24.1 | 0.00 | 0.00 | 0.00 | 50 | 1011.2 |
| 20260831172005 | 26 | 333 | 6.4 | 24.1 | 0.00 | 0.00 | 0.00 | 50 | 1011.1 |
| 20260831171005 | 26 | 33 | 14.5 | 24.1 | 0.00 | 0.00 | 0.00 | 50 | 1011.1 |
| 20260831170005 | 26 | 3 | 17.7 | 24.1 | 0.00 | 0.00 | 0.00 | 50 | 1011.2 |
| 20260831165154 | 27 | 355 | 19.3 | 25.7 | 0.00 | 0.00 | 0.00 | 50 | 1011.2 |
| 20260831164005 | 27 | 290 | 16.1 | 24.1 | 0.00 | 0.00 | 0.00 | 48 | 1011.2 |
| 20260831162004 | 28 | 15 | 12.9 | 25.7 | 0.00 | 0.00 | 0.00 | 45 | 1011.2 |
| 20260831160005 | 28 | 21 | 19.3 | 24.1 | 0.00 | 0.00 | 0.00 | 44 | 1011.1 |
| 20260831154005 | 28 | 33 | 16.1 | 24.1 | 0.00 | 0.00 | 0.00 | 43 | 1011.2 |
| 20260831153005 | 29 | 31 | 14.5 | 24.1 | 0.00 | 0.00 | 0.00 | 40 | 1011.2 |
| 20260831151005 | 29 | 34 | 14.5 | 20.9 | 0.00 | 0.00 | 0.00 | 41 | 1011.3 |
| 20260831150006 | 29 | 2 | 14.5 | 22.5 | 0.00 | 0.00 | 0.00 | 41 | 1011.4 |
| 20260831145005 | 29 | 351 | 11.3 | 22.5 | 0.00 | 0.00 | 0.00 | 40 | 1011.5 |
| 20260831144005 | 29 | 356 | 16.1 | 22.5 | 0.00 | 0.00 | 0.00 | 37 | 1011.5 |
| 20260831143006 | 30 | 4 | 16.1 | 22.5 | 0.00 | 0.00 | 0.00 | 36 | 1011.6 |
| 20260831141005 | 30 | 0 | 14.5 | 22.5 | 0.00 | 0.00 | 0.00 | 33 | 1011.6 |
| 20260831140004 | 30 | 357 | 11.3 | 19.3 | 0.00 | 0.00 | 0.00 | 33 | 1011.7 |
| 20260831135005 | 30 | 12 | 16.1 | 20.9 | 0.00 | 0.00 | 0.00 | 33 | 1011.8 |
| 20260831133004 | 29 | 22 | 12.9 | 20.9 | 0.00 | 0.00 | 0.00 | 35 | 1011.9 |
| 20260831132005 | 29 | 8 | 14.5 | 22.5 | 0.00 | 0.00 | 0.00 | 36 | 1012.0 |
| 20260831131005 | 29 | 288 | 14.5 | 20.9 | 0.00 | 0.00 | 0.00 | 38 | 1012.2 |
| 20260831130004 | 29 | 333 | 11.3 | 19.3 | 0.00 | 0.00 | 0.00 | 37 | 1012.3 |
| 20260831125005 | 29 | 342 | 17.7 | 20.9 | 0.00 | 0.00 | 0.00 | 34 | 1012.3 |
| 20260831124005 | 28 | 49 | 16.1 | 25.7 | 0.00 | 0.00 | 0.00 | 34 | 1012.3 |
| 20260831123005 | 28 | 16 | 8.0 | 20.9 | 0.00 | 0.00 | 0.00 | 34 | 1012.3 |
| 20260831122005 | 28 | 332 | 14.5 | 22.5 | 0.00 | 0.00 | 0.00 | 36 | 1012.6 |
| 20260831121005 | 28 | 330 | 14.5 | 24.1 | 0.00 | 0.00 | 0.00 | 36 | 1012.7 |
| 20260831120004 | 28 | 348 | 11.3 | 20.9 | 0.00 | 0.00 | 0.00 | 34 | 1012.8 |
| 20260831114005 | 27 | 44 | 19.3 | 22.5 | 0.00 | 0.00 | 0.00 | 35 | 1013.1 |
| 20260831112005 | 27 | 356 | 16.1 | 25.7 | 0.00 | 0.00 | 0.00 | 39 | 1013.2 |
| 20260831111004 | 27 | 357 | 16.1 | 25.7 | 0.00 | 0.00 | 0.00 | 40 | 1013.2 |
| 20260831105004 | 26 | 0 | 19.3 | 25.7 | 0.00 | 0.00 | 0.00 | 43 | 1013.3 |
| 20260831101005 | 25 | 6 | 16.1 | 20.9 | 0.00 | 0.00 | 0.00 | 46 | 1013.4 |
| 20260831100005 | 25 | 22 | 16.1 | 25.7 | 0.00 | 0.00 | 0.00 | 47 | 1013.3 |
| 20260831095005 | 25 | 31 | 17.7 | 25.7 | 0.00 | 0.00 | 0.00 | 48 | 1013.2 |
| 20260831094004 | 24 | 11 | 16.1 | 22.5 | 0.00 | 0.00 | 0.00 | 49 | 1013.2 |
| 20260831093005 | 24 | 53 | 14.5 | 22.5 | 0.00 | 0.00 | 0.00 | 51 | 1013.2 |
| 20260831092005 | 23 | 342 | 16.1 | 22.5 | 0.00 | 0.00 | 0.00 | 53 | 1013.4 |
| 20260831090005 | 23 | 44 | 14.5 | 20.9 | 0.00 | 0.00 | 0.00 | 57 | 1013.4 |
| 20260831085004 | 22 | 45 | 16.1 | 20.9 | 0.00 | 0.00 | 0.00 | 59 | 1013.4 |
| 20260831084005 | 22 | 349 | 16.1 | 24.1 | 0.00 | 0.00 | 0.00 | 63 | 1013.4 |
| 20260831083005 | 22 | 339 | 14.5 | 24.1 | 0.00 | 0.00 | 0.00 | 65 | 1013.4 |
| 20260831082004 | 21 | 26 | 12.9 | 22.5 | 0.00 | 0.00 | 0.00 | 68 | 1013.3 |
| 20260831081005 | 21 | 354 | 12.9 | 20.9 | 0.00 | 0.00 | 0.00 | 70 | 1013.4 |
| 20260831080004 | 21 | 348 | 11.3 | 19.3 | 0.00 | 0.00 | 0.00 | 74 | 1013.4 |
| 20260831075004 | 20 | 45 | 12.9 | 19.3 | 0.00 | 0.00 | 0.00 | 77 | 1013.3 |
| 20260831074005 | 20 | 38 | 9.7 | 16.1 | 0.00 | 0.00 | 0.00 | 79 | 1013.3 |
| 20260831073004 | 19 | 22 | 11.3 | 14.5 | 0.00 | 0.00 | 0.00 | 82 | 1013.1 |
| 20260831072005 | 19 | 45 | 9.7 | 12.9 | 0.00 | 0.00 | 0.00 | 84 | 1013.0 |
| 20260831071005 | 18 | 25 | 8.0 | 12.9 | 0.00 | 0.00 | 0.00 | 86 | 1012.8 |
| 20260831064006 | 16 | 22 | 6.4 | 11.3 | 0.00 | 0.00 | 0.00 | 99 | 1012.7 |
| 20260831063006 | 16 | 49 | 6.4 | 11.3 | 0.00 | 0.00 | 0.00 | 99 | 1012.8 |
| 20260831062005 | 16 | 55 | 9.7 | 16.1 | 0.00 | 0.00 | 0.00 | 99 | 1012.8 |
| 20260831061007 | 16 | 35 | 9.7 | 12.9 | 0.00 | 0.00 | 0.00 | 99 | 1012.6 |
| 20260831060007 | 16 | 45 | 9.7 | 9.7 | 0.00 | 0.00 | 0.00 | 99 | 1012.5 |
| 20260831055008 | 16 | 22 | 8.0 | 12.9 | 0.00 | 0.00 | 0.00 | 99 | 1012.6 |
| 20260831054007 | 17 | 48 | 4.8 | 14.5 | 0.00 | 0.00 | 0.00 | 99 | 1012.6 |
| 20260831053006 | 17 | 43 | 9.7 | 12.9 | 0.00 | 0.00 | 0.00 | 99 | 1012.8 |
| 20260831052006 | 17 | 34 | 9.7 | 12.9 | 0.00 | 0.00 | 0.00 | 99 | 1012.6 |
| 20260831045006 | 17 | 22 | 6.4 | 11.3 | 0.00 | 0.00 | 0.00 | 99 | 1012.6 |
| 20260831044006 | 17 | 24 | 9.7 | 12.9 | 0.00 | 0.00 | 0.00 | 99 | 1012.6 |
| 20260831043006 | 17 | 66 | 8.0 | 12.9 | 0.00 | 0.00 | 0.00 | 99 | 1012.7 |
| 20260831042005 | 17 | 41 | 8.0 | 11.3 | 0.00 | 0.00 | 0.00 | 98 | 1012.6 |
| 20260831041006 | 17 | 61 | 9.7 | 11.3 | 0.00 | 0.00 | 0.00 | 98 | 1012.7 |
| 20260831040005 | 17 | 40 | 8.0 | 12.9 | 0.00 | 0.00 | 0.00 | 97 | 1012.8 |
| 20260831035006 | 17 | 33 | 6.4 | 16.1 | 0.00 | 0.00 | 0.00 | 97 | 1012.8 |
| 20260831034006 | 17 | 40 | 9.7 | 12.9 | 0.00 | 0.00 | 0.00 | 97 | 1012.8 |
| 20260831032005 | 17 | 56 | 6.4 | 14.5 | 0.00 | 0.00 | 0.00 | 96 | 1012.8 |
| 20260831031005 | 17 | 22 | 8.0 | 12.9 | 0.00 | 0.00 | 0.00 | 96 | 1012.9 |
| 20260831025006 | 17 | 22 | 9.7 | 14.5 | 0.00 | 0.00 | 0.00 | 95 | 1013.0 |
| 20260831024005 | 17 | 38 | 8.0 | 12.9 | 0.00 | 0.00 | 0.00 | 95 | 1013.0 |
| 20260831023006 | 17 | 22 | 9.7 | 14.5 | 0.00 | 0.00 | 0.00 | 95 | 1013.1 |
| 20260831022005 | 17 | 36 | 6.4 | 11.3 | 0.00 | 0.00 | 0.00 | 95 | 1013.1 |
| 20260831021006 | 17 | 45 | 8.0 | 11.3 | 0.00 | 0.00 | 0.00 | 95 | 1013.0 |
| 20260831020005 | 17 | 20 | 8.0 | 11.3 | 0.00 | 0.00 | 0.00 | 95 | 1013.1 |
| 20260831014005 | 17 | 22 | 9.7 | 12.9 | 0.00 | 0.00 | 0.00 | 92 | 1013.3 |
| 20260831012006 | 17 | 328 | 9.7 | 16.1 | 0.00 | 0.00 | 0.00 | 91 | 1013.2 |
| 20260831011005 | 17 | 14 | 8.0 | 12.9 | 0.00 | 0.00 | 0.00 | 91 | 1013.3 |
| 20260831010006 | 17 | 22 | 8.0 | 11.3 | 0.00 | 0.00 | 0.00 | 91 | 1013.3 |
| 20260831005005 | 17 | 24 | 9.7 | 12.9 | 0.00 | 0.00 | 0.00 | 91 | 1013.3 |
| 20260831002006 | 17 | 28 | 8.0 | 19.3 | 0.00 | 0.00 | 0.00 | 91 | 1013.4 |
| 20260831001005 | 18 | 41 | 11.3 | 20.9 | 0.00 | 0.00 | 0.00 | 89 | 1013.3 |
| 20260831000005 | 18 | 38 | 11.3 | 19.3 | 0.00 | 0.00 | 0.00 | 89 | 1013.5 |
| 20260830235006 | 18 | 22 | 11.3 | 14.5 | 0.00 | 0.00 | 0.00 | 89 | 1013.7 |
| 20260830234005 | 18 | 63 | 9.7 | 16.1 | 0.00 | 0.00 | 0.00 | 89 | 1013.7 |